Regional Weather Roundup
Issued by NWS Bismarck, ND

Home | Current Version | Previous Version | Text Only | Print | Product List | Glossary On
Versions: 1 2 3 4 5 6 7 8 9 10 11 12 13 14 15 16 17 18 19 20 21 22 23 24 25 26 27 28 29 30 31 32 33 34 35 36 37 38 39 40 41 42 43 44 45 46 47 48 49 50
000
ASUS43 KBIS 021010
RWRBIS

NWR BROADCAST TEXT
NATIONAL WEATHER SERVICE BISMARCK ND
500 AM CDT THU JUL 02 2015

NOTE: "FAIR" INDICATES FEW OR NO CLOUDS BELOW 12,000 FEET WITH NO
SIGNIFICANT WEATHER AND/OR OBSTRUCTIONS TO VISIBILITY.


CITY           SKY/WX    TMP DP  RH WIND       PRES   REMARKS
WILLISTON      CLEAR     58  54  86 W9        29.99S
MINOT          PTCLDY    61  59  93 CALM      29.93S FOG
MINOT AFB      CLEAR     58  58 100 W1        29.92F FOG
BISMARCK       TSTM      64  62  93 SW8       29.97R FOG
DICKINSON      PTCLDY    59  57  93 NW8       30.00S FOG
GARRISON         N/A     60  59  96 CALM      29.95S
HETTINGER ARPT CLEAR     57  55  93 CALM      30.03R FOG
JAMESTOWN      PTCLDY    62  60  93 S6        29.94F
BEACH          FAIR      54  54 100 CALM      30.05S
CROSBY         FAIR      59  59 100 W5        29.99R FOG
HARVEY         FAIR      63  63 100 NW6       29.94R FOG
HAZEN          FOG       59  59 100 CALM      29.96R VSB<1/4
LINTON         FAIR      64  64 100 E5        29.95S FOG
MANDAN         PTSUNNY   63  61  94 SW5       29.98R
OAKES            N/A     59  59 100 SE3       29.96F
STANLEY        PTSUNNY   59  59 100 VRB6      29.99R FOG
$$

CITY           SKY/WX    TMP DP  RH WIND       PRES   REMARKS
GRAND FORKS    CLEAR     59  56  89 S5        29.95R
GRAND FORKS AF CLEAR     59  56  90 S7        29.95R
DEVILS LAKE    MOCLDY    66  61  82 S6        29.92S
FARGO          CLEAR     59  55  87 SE7       29.98R
CANDO          FAIR      59  59 100 W3        29.93F FOG
CAVALIER       FAIR      61  59  94 S6        29.93S FOG
GRAFTON        FAIR      59  59 100 S6        29.94S
GWINNER        CLOUDY    61  61 100 SE5       29.97F
LANGDON        FAIR      61  61 100 S6        29.94S FOG
ROLLA          CLOUDY    59  59 100 N3        29.95F FOG
WALHALLA       FAIR      63  63 100 MISG      29.92F
$$

CITY           SKY/WX    TMP DP  RH WIND       PRES   REMARKS
ABERDEEN       CLOUDY    63  58  83 S6        29.96S
MOBRIDGE       RAIN      67  61  81 SW5       29.92S
BUFFALO          N/A     59  56  89 NW9       29.99S
RAPID CITY     MOCLDY    61  59  93 NW9       30.02S
GLASGOW        CLEAR     57  52  83 NW8       30.05S
SIDNEY         CLEAR     59  54  82 CALM      30.02R
WOLF POINT     CLEAR     57  54  89 SW7       30.03S
GLENDIVE       CLEAR     55  54  94 W6        30.05S
MILES CITY     CLEAR     61  56  83 CALM      30.07R
BAKER          PTCLDY    58  56  93 CALM      30.07S
$$

CITY           SKY/WX    TMP DP  RH WIND       PRES   REMARKS
BILLINGS       PTCLDY    64  53  67 NW8       30.15S
GREAT FALLS    CLEAR     56  50  80 SW6       30.19R
REGINA         PTCLDY    55  55 100 NW3       30.00S FOG
ESTEVAN        FOG       55  55 100 NW6       29.97S VSB 1/2
$$



USA.gov is the U.S. government's official web portal to all federal, state and local government web resources and services.